Hourly Data Report for June 02, 2006

TORONTO CITY
ONTARIO

43°40'00.000" N
79°24'00.000" W
112.50 m
6158355
71508
XTO

Download Data

Hourly Data (June 2006)
Hourly Data Report for June 2, 2006
TIME
LST
Temp Definition
°C
Dew Point Definition
°C
Rel Hum Definition
%
Precip. Amount Definition
mm

Wind Dir Definition
10's deg

Wind Spd Definition
km/h
Visibility Definition
km
Stn Press Definition
kPa
Hmdx Definition


Wind Chill Definition


Weather Definition


00:00 18.1 17.2 94   LegendMM LegendMM   100.11     LegendNANA
01:00 17.7 17.0 96   LegendMM LegendMM   100.11     LegendNANA
02:00 17.3 16.6 96   LegendMM LegendMM   100.08     LegendNANA
03:00 17.5 16.6 94   LegendMM LegendMM   100.04     LegendNANA
04:00 17.2 15.8 91   LegendMM LegendMM   100.03     LegendNANA
05:00 17.0 15.6 91   LegendMM LegendMM   100.04     LegendNANA
06:00 17.5 15.3 87   LegendMM LegendMM   100.05     LegendNANA
07:00 18.8 15.4 81   LegendMM LegendMM   100.03     LegendNANA
08:00 20.8 14.6 68   LegendMM LegendMM   100.05 25   LegendNANA
09:00 22.1 15.6 67   LegendMM LegendMM   100.02 26   LegendNANA
10:00 22.2 15.0 64   LegendMM LegendMM   99.99 26   LegendNANA
11:00 22.2 16.2 69   LegendMM LegendMM   99.99 27   LegendNANA
12:00 22.4 16.8 71   LegendMM LegendMM   99.98 28   LegendNANA
13:00 21.5 15.4 68   LegendMM LegendMM   99.96 26   LegendNANA
14:00 21.2 15.4 69   LegendMM LegendMM   99.96 25   LegendNANA
15:00 21.8 15.8 69   LegendMM LegendMM   99.90 26   LegendNANA
16:00 22.2 15.8 67   LegendMM LegendMM   99.89 27   LegendNANA
17:00 21.6 15.6 69   LegendMM LegendMM   99.85 26   LegendNANA
18:00 21.2 14.2 64   LegendMM LegendMM   99.83 25   LegendNANA
19:00 21.0 14.8 68   LegendMM LegendMM   99.83 25   LegendNANA
20:00 20.7 14.0 65   LegendMM LegendMM   99.84     LegendNANA
21:00 19.7 14.2 71   LegendMM LegendMM   99.86     LegendNANA
22:00 19.0 15.5 80   LegendMM LegendMM   99.91     LegendNANA
23:00 17.8 16.3 91   LegendMM LegendMM   99.91     LegendNANA

Notes on Data Quality.

Legend

  • E = Estimated
  • M = Missing
  • NA = Not Available*
  • [empty] = Indicates an unobserved value
Date modified: